Location: Oroua River
(40.4333°S, 175.4333°E)
Time: 14:07:42
(UTC+00:00)

YAOGAN 6 - Pass Details

Date: 03 February 2023
Orbit: 448 x 480 km, 97.1° (Epoch: 31 March)

Event Time Altitude Azimuth Distance (km) Brightness Sun altitude
Exits shadow 15:48:27 39° 343° (NNW) 699 2.9 -17.1°
Maximum altitude 15:49:29 62° 281° (W) 524 2.4 -17.0°
Drops below altitude 10° 15:52:57 10° 199° (SSW) 1,625 5.5 -16.5°
Sets 15:55:02 0° 195° (SSW) 2,514 6.5 -16.1°
